This is the latest recevied weather packets stored in our database for station/object SR5NLK-1. If no packets are shown the sender has not sent any weather packets the latest 10 day(s).
| Time | Temp. | Humidity | Pressure | Rain* | Wind** | Luminosity | Snow |
|---|---|---|---|---|---|---|---|
| 1777704608 | 30.56° C | 26% | 1053.2 hPa | 0 mm | - | - | - |
| 1777704307 | 31.11° C | 26% | 1072.1 hPa | 0 mm | - | - | - |
| 1777704126 | 31.11° C | 27% | 1056.4 hPa | 0 mm | - | - | - |
| 1777704007 | 30.56° C | 27% | 1069 hPa | 0 mm | - | - | - |
| 1777703707 | 31.11° C | 27% | 1027.1 hPa | 0 mm | - | - | - |
| 1777703407 | 31.11° C | 27% | 1068.9 hPa | 0 mm | - | - | - |
| 1777703116 | 31.11° C | 27% | - | 0 mm | - | - | - |
| 1777703107 | 31.11° C | 27% | 1062.7 hPa | 0 mm | - | - | - |
| 1777702807 | 31.11° C | 27% | 1065.8 hPa | 0 mm | - | - | - |
| 1777702507 | 31.11° C | 27% | 1068.9 hPa | 0 mm | - | - | - |
| 1777702207 | 31.11° C | 28% | 1062.7 hPa | 0 mm | - | - | - |
| 1777702146 | 31.11° C | 28% | 1069 hPa | 0 mm | - | - | - |
| 1777701907 | 30.56° C | 28% | 1062.7 hPa | 0 mm | - | - | - |
| 1777701607 | 29.44° C | 29% | 1062.7 hPa | 0 mm | - | - | - |
| 1777701307 | 29.44° C | 29% | 1069 hPa | 0 mm | - | - | - |
| 1777701007 | 28.89° C | 30% | 1050.1 hPa | 0 mm | - | - | - |
| 1777700707 | 28.89° C | 30% | 1068.9 hPa | 0 mm | - | - | - |
| 1777700407 | 28.33° C | 30% | 1026 hPa | 0 mm | - | - | - |
| 1777700166 | 28.33° C | 31% | 1062.7 hPa | 0 mm | - | - | - |
| 1777700115 | 28.33° C | 31% | 1056.4 hPa | 0 mm | - | - | - |
| 1777700107 | 28.33° C | 31% | 1056.4 hPa | 0 mm | - | - | - |
| 1777699807 | 27.78° C | 31% | 1040.6 hPa | 0 mm | - | - | - |
| 1777699507 | 27.78° C | 31% | 1065.8 hPa | 0 mm | - | - | - |
| 1777699207 | 27.22° C | 33% | 1065.8 hPa | 0 mm | - | - | - |
| 1777698907 | 26.67° C | 34% | 1037.4 hPa | 0 mm | - | - | - |
* Rain latest hour (hover to see other rain measurements)
** Current wind speed in m/s (hover to see current wind gust speed)